EW4258 Weather Reports


Display with metric or nautical units.
time (UTC)temp
F
wind
direction
speed
MPH
gust
MPH
rain 1hr
in
rain 24hr
in
rain mn
in
humidity
%
barometer
mb
20260831112114 72 247 1.0 3.0 0.00 0.00 0.00 67 1017.7
20260831111114 72 67 1.0 1.0 0.00 0.00 0.00 68 1017.7
20260831110114 72 270 1.0 2.0 0.00 0.00 0.00 69 1017.7
20260831105114 71 157 0.0 0.0 0.00 0.00 0.00 70 1017.7
20260831104114 71 45 1.0 2.0 0.00 0.00 0.00 71 1018.1
20260831103114 70 247 0.0 0.0 0.00 0.00 0.00 71 1018.1
20260831102113 69 337 0.0 1.0 0.00 0.00 0.00 71 1018.0
20260831100114 68 202 1.0 1.0 0.00 0.00 0.00 76 1018.2
20260831095113 68 157 1.0 0.0 0.00 0.00 0.00 77 1018.2
20260831094113 68 135 0.0 2.0 0.00 0.00 0.00 78 1018.6
20260831092113 67 67 0.0 1.0 0.00 0.00 0.00 79 1018.6
20260831091113 67 157 0.0 0.0 0.00 0.00 0.00 79 1018.6
20260831090114 67 225 1.0 0.0 0.00 0.00 0.00 81 1018.8
20260831084113 66 202 1.0 2.0 0.00 0.00 0.00 80 1018.6
20260831083112 66 202 0.0 0.0 0.00 0.00 0.00 77 1018.6
20260831081112 66 202 0.0 0.0 0.00 0.00 0.00 79 1018.6
20260831080112 66 225 0.0 0.0 0.00 0.00 0.00 80 1018.6
20260831075112 65 247 0.0 0.0 0.00 0.00 0.00 81 1018.6
20260831074112 65 270 0.0 0.0 0.00 0.00 0.00 82 1018.7
20260831073112 65 247 0.0 0.0 0.00 0.00 0.00 80 1018.7
20260831072112 65 292 0.0 1.0 0.00 0.00 0.00 81 1019.0
20260831071112 65 202 0.0 0.0 0.00 0.00 0.00 81 1019.0
20260831070112 65 180 0.0 0.0 0.00 0.00 0.00 81 1018.4
20260831065112 64 90 1.0 2.0 0.00 0.00 0.00 83 1018.4
20260831064112 64 112 1.0 2.0 0.00 0.00 0.00 85 1018.6
20260831063113 63 180 1.0 1.0 0.00 0.00 0.00 84 1018.6
20260831061111 63 45 2.0 3.0 0.00 0.00 0.00 83 1018.9
20260831060112 63 135 0.0 1.0 0.00 0.00 0.00 83 1018.2
20260831055111 63 157 1.0 1.0 0.00 0.00 0.00 84 1018.2
20260831054111 63 157 2.0 2.0 0.00 0.00 0.00 86 1018.5
20260831052111 63 67 2.0 3.0 0.00 0.00 0.00 83 1018.8
20260831051111 63 180 0.0 0.0 0.00 0.00 0.00 85 1018.8
20260831050111 63 337 0.0 0.0 0.00 0.00 0.00 84 1018.2
20260831045111 63 45 1.0 2.0 0.00 0.00 0.00 83 1018.2
20260831044112 63 135 1.0 0.0 0.00 0.00 0.00 83 1017.7
20260831043111 63 247 1.0 1.0 0.00 0.00 0.00 83 1017.7
20260831042111 62 315 1.0 3.0 0.00 0.00 0.00 82 1017.1
20260831041110 63 292 1.0 1.0 0.00 0.00 0.00 78 1017.1
20260831040110 63 315 1.0 1.0 0.00 0.00 0.00 75 1016.7
20260831035112 63 135 0.0 0.0 0.00 0.00 0.00 75 1016.7
20260831033111 63 135 1.0 0.0 0.00 0.00 0.00 73 1016.7
20260831030111 63 157 0.0 0.0 0.00 0.00 0.00 73 1016.9
20260831025111 63 135 0.0 0.0 0.00 0.00 0.00 73 1016.9
20260831024111 63 135 0.0 0.0 0.00 0.00 0.00 73 1016.8
20260831023111 63 157 0.0 0.0 0.00 0.00 0.00 72 1016.8
20260831021111 63 247 0.0 0.0 0.00 0.00 0.00 72 1016.8
20260831020111 63 22 0.0 0.0 0.00 0.00 0.00 72 1016.6
20260831015111 63 90 0.0 0.0 0.00 0.00 0.00 72 1016.6
20260831013111 64 157 1.0 0.0 0.00 0.00 0.00 72 1016.7
20260831012111 64 135 1.0 2.0 0.00 0.00 0.00 72 1016.9
20260831011111 64 135 0.0 1.0 0.00 0.00 0.00 71 1016.9
20260831010110 64 135 0.0 0.0 0.00 0.00 0.00 71 1017.1
20260831005110 64 112 1.0 2.0 0.00 0.00 0.00 72 1017.1
20260831003112 64 22 0.0 0.0 0.00 0.00 0.00 71 1017.1
20260831002110 64 180 1.0 0.0 0.00 0.00 0.00 71 1017.1
20260831001110 64 135 0.0 0.0 0.00 0.00 0.00 70 1017.1
20260831000110 65 157 0.0 0.0 0.00 0.00 0.00 70 1016.9
20260830235110 65 112 0.0 0.0 0.00 0.00 0.00 69 1016.9
20260830234111 65 202 0.0 0.0 0.00 0.00 0.00 69 1016.8
20260830233111 65 247 0.0 0.0 0.00 0.00 0.00 69 1016.8
20260830232110 66 90 1.0 2.0 0.00 0.00 0.00 67 1016.9
20260830231110 66 135 0.0 0.0 0.00 0.00 0.00 68 1016.9
20260830230109 66 157 0.0 0.0 0.00 0.00 0.00 66 1017.1
20260830225109 66 135 0.0 0.0 0.00 0.00 0.00 67 1017.1
20260830224109 66 112 0.0 1.0 0.00 0.00 0.00 66 1016.9
20260830223109 66 180 0.0 0.0 0.00 0.00 0.00 65 1016.9
20260830222109 67 157 0.0 0.0 0.00 0.00 0.00 65 1016.9
20260830221109 67 337 0.0 0.0 0.00 0.00 0.00 64 1016.9
20260830220112 68 157 0.0 0.0 0.00 0.00 0.00 63 1017.0
20260830215114 68 157 0.0 0.0 0.00 0.00 0.00 62 1017.0
20260830214112 69 180 0.0 0.0 0.00 0.00 0.00 61 1016.9
20260830213112 69 157 0.0 0.0 0.00 0.00 0.00 61 1016.9
20260830212112 70 157 0.0 0.0 0.00 0.00 0.00 59 1016.9
20260830211112 70 135 1.0 1.0 0.00 0.00 0.00 58 1016.9
20260830210112 71 157 1.0 1.0 0.00 0.00 0.00 56 1016.8
20260830205112 71 135 1.0 2.0 0.00 0.00 0.00 54 1016.8
20260830204112 72 360 2.0 3.0 0.00 0.00 0.00 54 1016.7
20260830203111 72 337 2.0 1.0 0.00 0.00 0.00 53 1016.7
20260830202111 72 360 1.0 2.0 0.00 0.00 0.00 52 1016.7
20260830201111 73 337 2.0 2.0 0.00 0.00 0.00 52 1016.7
20260830200111 73 247 2.0 2.0 0.00 0.00 0.00 52 1016.6
20260830195111 74 202 3.0 2.0 0.00 0.00 0.00 52 1016.6
20260830194111 74 292 2.0 4.0 0.00 0.00 0.00 52 1016.3
20260830193111 74 337 3.0 3.0 0.00 0.00 0.00 52 1016.3
20260830192112 74 292 3.0 5.0 0.00 0.00 0.00 51 1015.9
20260830191111 74 270 3.0 4.0 0.00 0.00 0.00 51 1015.9
20260830190111 74 45 3.0 5.0 0.00 0.00 0.00 51 1015.8
20260830185112 75 247 3.0 3.0 0.00 0.00 0.00 50 1015.8
20260830184111 75 225 3.0 4.0 0.00 0.00 0.00 50 1015.5
20260830183110 75 337 3.0 2.0 0.00 0.00 0.00 49 1015.5
20260830180110 76 315 2.0 8.0 0.00 0.00 0.00 48 1014.9
20260830174115 77 22 3.0 3.0 0.00 0.00 0.00 48 1014.9
20260830173115 77 315 3.0 3.0 0.00 0.00 0.00 47 1014.9
20260830172115 78 337 3.0 4.0 0.00 0.00 0.00 47 1014.9
20260830171115 78 315 3.0 3.0 0.00 0.00 0.00 47 1014.9
20260830165116 79 315 3.0 2.0 0.00 0.00 0.00 46 1014.7
20260830164115 79 337 4.0 4.0 0.00 0.00 0.00 46 1014.6
20260830163114 80 360 3.0 5.0 0.00 0.00 0.00 46 1014.6
20260830162114 80 337 3.0 4.0 0.00 0.00 0.00 46 1014.6
20260830161114 80 360 3.0 9.0 0.00 0.00 0.00 46 1014.6
20260830160114 80 315 3.0 3.0 0.00 0.00 0.00 45 1014.8
20260830155115 80 337 3.0 3.0 0.00 0.00 0.00 45 1014.8
20260830154114 80 360 3.0 7.0 0.00 0.00 0.00 45 1014.9
20260830153115 80 135 2.0 2.0 0.00 0.00 0.00 45 1014.9
20260830152114 80 292 1.0 2.0 0.00 0.00 0.00 45 1014.8
20260830151114 81 292 1.0 2.0 0.00 0.00 0.00 46 1014.8
20260830150114 82 135 2.0 2.0 0.00 0.00 0.00 45 1015.0
20260830145114 82 90 2.0 3.0 0.00 0.00 0.00 45 1015.0
20260830144114 82 90 1.0 1.0 0.00 0.00 0.00 45 1015.2
20260830143113 82 112 1.0 0.0 0.00 0.00 0.00 45 1015.2
20260830142114 82 90 0.0 0.0 0.00 0.00 0.00 44 1015.2
20260830140113 82 225 2.0 3.0 0.00 0.00 0.00 44 1015.4
20260830135113 82 247 2.0 3.0 0.00 0.00 0.00 46 1015.4
20260830134113 82 315 2.0 0.0 0.00 0.00 0.00 46 1016.2
20260830133113 82 247 2.0 4.0 0.00 0.00 0.00 45 1016.2
20260830132113 81 225 1.0 3.0 0.00 0.00 0.00 47 1015.8
20260830131113 81 270 2.0 0.0 0.00 0.00 0.00 47 1015.8
20260830130113 81 225 1.0 2.0 0.00 0.00 0.00 48 1016.1
20260830125112 81 202 1.0 2.0 0.00 0.00 0.00 48 1016.1
20260830124112 80 247 2.0 0.0 0.00 0.00 0.00 49 1016.5
20260830123112 80 112 2.0 5.0 0.00 0.00 0.00 49 1016.5
20260830122113 79 202 2.0 1.0 0.00 0.00 0.00 49 1016.8
20260830121112 79 247 1.0 2.0 0.00 0.00 0.00 49 1016.8
20260830115112 78 292 1.0 3.0 0.00 0.00 0.00 49 1016.9
20260830114112 78 180 2.0 2.0 0.00 0.00 0.00 49 1016.9